Time,TemperatureF,DewpointF,PressureIn,WindDirection,WindDirectionDegrees,WindSpeedMPH,WindSpeedGustMPH,Humidity,HourlyPrecipIn,Conditions,Clouds,dailyrainin,SoftwareType,DateUTC
2013-01-17 00:00:00,58.1,0.0,29.91,South,182,0.0,0.0,0,0.00,,---,0.00,VWS V14.01,2013-01-17 05:00:00,
2013-01-17 00:01:00,58.1,0.0,29.91,South,182,0.0,0.0,0,0.00,,---,0.00,VWS V14.01,2013-01-17 05:01:00,
2013-01-17 00:06:00,58.1,0.0,29.91,South,182,0.0,0.0,0,0.00,,---,0.00,VWS V14.01,2013-01-17 05:06:00,
2013-01-17 00:11:00,58.1,0.0,29.91,South,182,0.0,0.0,0,0.00,,---,0.00,VWS V14.01,2013-01-17 05:11:00,
2013-01-17 00:16:00,58.1,0.0,29.91,South,182,0.0,0.0,0,0.00,,---,0.00,VWS V14.01,2013-01-17 05:16:00,
2013-01-17 00:21:00,58.1,0.0,29.91,South,182,0.0,0.0,0,0.00,,---,0.00,VWS V14.01,2013-01-17 05:21:00,
2013-01-17 00:26:00,58.1,0.0,29.91,South,182,0.0,0.0,0,0.00,,---,0.00,VWS V14.01,2013-01-17 05:26:00,
2013-01-17 00:31:00,58.1,0.0,29.91,South,183,0.0,0.0,0,0.00,,---,0.00,VWS V14.01,2013-01-17 05:31:00,
2013-01-17 00:36:00,58.1,0.0,29.91,South,183,0.0,0.0,0,0.00,,---,0.00,VWS V14.01,2013-01-17 05:36:00,
2013-01-17 00:41:00,58.1,0.0,29.91,South,183,0.0,0.0,0,0.00,,---,0.00,VWS V14.01,2013-01-17 05:41:00,
2013-01-17 00:46:00,58.1,0.0,29.91,South,183,0.0,0.0,0,0.00,,---,0.00,VWS V14.01,2013-01-17 05:46:00,
2013-01-17 00:51:00,58.1,0.0,29.91,South,176,0.0,0.0,0,0.00,,---,0.00,VWS V14.01,2013-01-17 05:51:00,
2013-01-17 00:56:00,58.1,0.0,29.91,South,178,0.0,0.0,0,0.00,,---,0.00,VWS V14.01,2013-01-17 05:56:00,
2013-01-17 01:01:00,57.9,0.0,29.91,South,179,0.0,0.0,0,0.00,,---,0.00,VWS V14.01,2013-01-17 06:01:00,
2013-01-17 01:06:00,57.9,0.0,29.91,South,178,0.0,0.0,0,0.00,,---,0.00,VWS V14.01,2013-01-17 06:06:00,
2013-01-17 01:11:00,57.9,0.0,29.91,South,179,0.0,0.0,0,0.00,,---,0.00,VWS V14.01,2013-01-17 06:11:00,
2013-01-17 01:16:00,58.1,0.0,29.91,SSW,197,0.0,0.0,0,0.00,,---,0.00,VWS V14.01,2013-01-17 06:16:00,
2013-01-17 01:21:00,58.3,0.0,29.91,SW,226,0.0,0.0,0,0.00,,---,0.00,VWS V14.01,2013-01-17 06:21:00,
2013-01-17 01:26:00,58.6,0.0,29.91,SW,225,0.0,0.0,0,0.00,,---,0.00,VWS V14.01,2013-01-17 06:26:00,
2013-01-17 01:31:00,58.8,0.0,29.91,South,170,0.0,0.0,0,0.00,,---,0.00,VWS V14.01,2013-01-17 06:31:00,
2013-01-17 01:36:00,58.8,0.0,29.91,South,172,0.0,0.0,0,0.00,,---,0.00,VWS V14.01,2013-01-17 06:36:00,
2013-01-17 01:41:00,58.8,0.0,29.91,South,172,0.0,0.0,0,0.00,,---,0.00,VWS V14.01,2013-01-17 06:41:00,
2013-01-17 01:46:00,58.6,0.0,29.91,South,172,0.0,0.0,0,0.00,,---,0.00,VWS V14.01,2013-01-17 06:46:00,
2013-01-17 01:51:00,58.8,0.0,29.91,South,172,0.0,0.0,0,0.00,,---,0.00,VWS V14.01,2013-01-17 06:51:00,
2013-01-17 01:56:00,58.8,0.0,29.91,SW,225,0.0,0.0,0,0.00,,---,0.00,VWS V14.01,2013-01-17 06:56:00,
2013-01-17 02:01:00,58.8,0.0,29.91,SW,226,0.0,0.0,0,0.00,,---,0.00,VWS V14.01,2013-01-17 07:01:00,
2013-01-17 02:06:00,59.0,0.0,29.91,SW,226,0.0,0.0,0,0.00,,---,0.00,VWS V14.01,2013-01-17 07:06:00,
2013-01-17 02:11:00,59.0,0.0,29.91,SW,234,0.0,0.0,0,0.00,,---,0.00,VWS V14.01,2013-01-17 07:11:00,
2013-01-17 02:16:00,59.4,0.0,29.91,WSW,245,0.0,0.0,0,0.00,,---,0.00,VWS V14.01,2013-01-17 07:16:00,
2013-01-17 02:21:00,59.4,0.0,29.91,West,281,0.0,0.0,0,0.00,,---,0.00,VWS V14.01,2013-01-17 07:21:00,
2013-01-17 02:26:00,59.4,0.0,29.91,West,262,0.0,0.0,0,0.00,,---,0.00,VWS V14.01,2013-01-17 07:26:00,
2013-01-17 02:31:00,59.4,0.0,29.91,West,262,0.0,0.0,0,0.00,,---,0.00,VWS V14.01,2013-01-17 07:31:00,
2013-01-17 02:36:00,59.5,0.0,29.91,West,262,0.0,0.0,0,0.00,,---,0.00,VWS V14.01,2013-01-17 07:36:00,
2013-01-17 02:41:00,59.7,0.0,29.91,West,262,0.0,0.0,0,0.00,,---,0.00,VWS V14.01,2013-01-17 07:41:00,
2013-01-17 02:46:00,59.9,0.0,29.91,West,262,0.0,0.0,0,0.00,,---,0.00,VWS V14.01,2013-01-17 07:46:00,
2013-01-17 02:51:00,60.1,0.0,29.91,WSW,252,0.0,0.0,0,0.00,,---,0.00,VWS V14.01,2013-01-17 07:51:00,
2013-01-17 02:56:00,60.1,0.0,29.91,WSW,249,0.0,0.0,0,0.00,,---,0.00,VWS V14.01,2013-01-17 07:56:00,
2013-01-17 03:01:00,60.4,0.0,29.91,WSW,243,0.0,0.0,0,0.00,,---,0.00,VWS V14.01,2013-01-17 08:01:00,
2013-01-17 03:06:00,60.4,0.0,29.91,WSW,244,0.0,0.0,0,0.00,,---,0.00,VWS V14.01,2013-01-17 08:06:00,
2013-01-17 03:11:00,60.3,0.0,29.91,WSW,248,0.0,0.0,0,0.00,,---,0.00,VWS V14.01,2013-01-17 08:11:00,
2013-01-17 03:16:00,60.1,0.0,29.91,WSW,246,0.0,0.0,0,0.00,,---,0.00,VWS V14.01,2013-01-17 08:16:00,
2013-01-17 03:21:00,60.3,0.0,29.91,SW,219,0.0,0.0,0,0.00,,---,0.00,VWS V14.01,2013-01-17 08:21:00,
2013-01-17 03:26:00,60.4,0.0,29.91,SW,235,0.0,0.0,0,0.00,,---,0.00,VWS V14.01,2013-01-17 08:26:00,
2013-01-17 03:31:00,60.6,0.0,29.91,West,279,0.0,0.0,0,0.00,,---,0.00,VWS V14.01,2013-01-17 08:31:00,
2013-01-17 03:36:00,60.8,0.0,29.91,West,271,3.4,5.4,0,0.00,,---,0.00,VWS V14.01,2013-01-17 08:36:00,
2013-01-17 03:41:00,61.0,0.0,29.91,West,272,0.0,0.0,0,0.00,,---,0.00,VWS V14.01,2013-01-17 08:41:00,
2013-01-17 03:46:00,61.0,0.0,29.91,SW,229,0.0,0.0,0,0.00,,---,0.00,VWS V14.01,2013-01-17 08:46:00,
2013-01-17 03:51:00,60.8,0.0,29.91,WSW,254,0.0,0.0,0,0.00,,---,0.00,VWS V14.01,2013-01-17 08:51:00,
2013-01-17 03:56:00,60.4,0.0,29.91,West,276,0.0,0.0,0,0.00,,---,0.00,VWS V14.01,2013-01-17 08:56:00,
2013-01-17 04:01:00,60.3,0.0,29.91,SW,235,0.0,0.0,0,0.00,,---,0.00,VWS V14.01,2013-01-17 09:01:00,
2013-01-17 04:06:00,60.1,0.0,29.88,WSW,243,0.0,0.0,0,0.00,,---,0.00,VWS V14.01,2013-01-17 09:06:00,
2013-01-17 04:11:00,59.7,0.0,29.88,South,178,0.0,0.0,0,0.00,,---,0.00,VWS V14.01,2013-01-17 09:11:00,
2013-01-17 04:16:00,59.5,0.0,29.88,SSW,212,0.0,0.0,0,0.00,,---,0.00,VWS V14.01,2013-01-17 09:16:00,
2013-01-17 04:21:00,59.4,0.0,29.88,SSW,208,0.0,0.0,0,0.00,,---,0.00,VWS V14.01,2013-01-17 09:21:00,
2013-01-17 04:26:00,59.2,0.0,29.88,South,187,0.0,0.0,0,0.00,,---,0.00,VWS V14.01,2013-01-17 09:26:00,
2013-01-17 04:31:00,59.0,0.0,29.88,South,188,0.0,0.0,0,0.00,,---,0.00,VWS V14.01,2013-01-17 09:31:00,
2013-01-17 04:36:00,58.8,0.0,29.88,South,188,0.0,0.0,0,0.00,,---,0.00,VWS V14.01,2013-01-17 09:36:00,
2013-01-17 04:41:00,58.6,0.0,29.88,South,188,0.0,0.0,0,0.00,,---,0.00,VWS V14.01,2013-01-17 09:41:00,
2013-01-17 04:46:00,58.5,0.0,29.88,South,188,0.0,0.0,0,0.00,,---,0.00,VWS V14.01,2013-01-17 09:46:00,
2013-01-17 04:51:00,58.3,0.0,29.88,South,188,0.0,0.0,0,0.00,,---,0.00,VWS V14.01,2013-01-17 09:51:00,
2013-01-17 04:56:00,58.1,0.0,29.88,South,188,0.0,0.0,0,0.00,,---,0.00,VWS V14.01,2013-01-17 09:56:00,
2013-01-17 05:01:00,58.1,0.0,29.88,South,188,0.0,0.0,0,0.00,,---,0.00,VWS V14.01,2013-01-17 10:01:00,
2013-01-17 05:06:00,57.9,0.0,29.88,South,188,0.0,0.0,0,0.00,,---,0.00,VWS V14.01,2013-01-17 10:06:00,
2013-01-17 05:11:00,57.9,0.0,29.88,South,188,0.0,0.0,0,0.00,,---,0.00,VWS V14.01,2013-01-17 10:11:00,
2013-01-17 05:16:00,57.7,0.0,29.88,South,188,0.0,0.0,0,0.00,,---,0.00,VWS V14.01,2013-01-17 10:16:00,
2013-01-17 05:21:00,57.6,0.0,29.88,South,188,0.0,0.0,0,0.00,,---,0.00,VWS V14.01,2013-01-17 10:21:00,
2013-01-17 05:26:00,57.6,0.0,29.88,South,188,0.0,0.0,0,0.00,,---,0.00,VWS V14.01,2013-01-17 10:26:00,
2013-01-17 05:30:00,57.4,0.0,29.88,South,188,0.0,0.0,0,0.00,,---,0.00,VWS V14.01,2013-01-17 10:30:00,
2013-01-17 05:36:00,57.2,0.0,29.88,South,188,0.0,0.0,0,0.00,,---,0.00,VWS V14.01,2013-01-17 10:36:00,
2013-01-17 05:41:00,57.2,0.0,29.88,South,188,0.0,0.0,0,0.00,,---,0.00,VWS V14.01,2013-01-17 10:41:00,
2013-01-17 05:46:00,57.2,0.0,29.88,South,188,0.0,0.0,0,0.00,,---,0.00,VWS V14.01,2013-01-17 10:46:00,
2013-01-17 05:51:00,57.2,0.0,29.88,South,188,0.0,0.0,0,0.00,,---,0.00,VWS V14.01,2013-01-17 10:51:00,
2013-01-17 05:56:00,57.2,0.0,29.88,South,188,0.0,0.0,0,0.00,,---,0.00,VWS V14.01,2013-01-17 10:56:00,
2013-01-17 06:01:00,57.2,0.0,29.88,South,188,0.0,0.0,0,0.00,,---,0.00,VWS V14.01,2013-01-17 11:01:00,
2013-01-17 06:06:00,57.0,0.0,29.88,South,188,0.0,0.0,0,0.00,,---,0.00,VWS V14.01,2013-01-17 11:06:00,
2013-01-17 06:10:00,56.8,0.0,29.88,South,188,0.0,0.0,0,0.00,,---,0.00,VWS V14.01,2013-01-17 11:10:00,
2013-01-17 06:15:00,56.8,0.0,29.88,South,188,0.0,0.0,0,0.00,,---,0.00,VWS V14.01,2013-01-17 11:15:00,
2013-01-17 06:20:00,57.2,0.0,29.88,South,188,0.0,0.0,0,0.00,,---,0.00,VWS V14.01,2013-01-17 11:20:00,
2013-01-17 06:25:00,57.4,0.0,29.88,South,188,0.0,0.0,0,0.00,,---,0.00,VWS V14.01,2013-01-17 11:25:00,
2013-01-17 06:30:00,57.6,0.0,29.88,South,188,0.0,0.0,0,0.00,,---,0.00,VWS V14.01,2013-01-17 11:30:00,
2013-01-17 06:35:00,57.4,0.0,29.88,South,188,0.0,0.0,0,0.00,,---,0.00,VWS V14.01,2013-01-17 11:35:00,
2013-01-17 06:40:00,57.4,0.0,29.88,South,188,0.0,0.0,0,0.00,,---,0.00,VWS V14.01,2013-01-17 11:40:00,
2013-01-17 06:45:00,57.4,0.0,29.88,South,188,0.0,0.0,0,0.00,,---,0.00,VWS V14.01,2013-01-17 11:45:00,
2013-01-17 06:50:00,57.7,0.0,29.88,South,188,0.0,0.0,0,0.00,,---,0.00,VWS V14.01,2013-01-17 11:50:00,
2013-01-17 06:55:00,57.9,0.0,29.88,South,188,0.0,0.0,0,0.00,,---,0.00,VWS V14.01,2013-01-17 11:55:00,
2013-01-17 07:00:00,58.3,0.0,29.88,South,188,0.0,0.0,0,0.00,,---,0.00,VWS V14.01,2013-01-17 12:00:00,
2013-01-17 07:05:00,58.8,0.0,29.88,SSW,193,0.0,0.0,0,0.00,,---,0.00,VWS V14.01,2013-01-17 12:05:00,
2013-01-17 07:10:00,59.2,0.0,29.88,SW,227,0.0,0.0,0,0.00,,---,0.00,VWS V14.01,2013-01-17 12:10:00,
2013-01-17 07:15:00,59.5,0.0,29.88,SSW,203,0.0,0.0,0,0.00,,---,0.00,VWS V14.01,2013-01-17 12:15:00,
2013-01-17 07:20:00,59.5,0.0,29.91,WSW,237,0.0,0.0,0,0.00,,---,0.00,VWS V14.01,2013-01-17 12:20:00,
2013-01-17 07:25:00,59.5,0.0,29.91,SW,222,0.0,0.0,0,0.00,,---,0.00,VWS V14.01,2013-01-17 12:25:00,
2013-01-17 07:30:00,59.7,0.0,29.91,SW,234,0.0,0.0,0,0.00,,---,0.00,VWS V14.01,2013-01-17 12:30:00,
2013-01-17 07:35:00,59.7,0.0,29.91,WSW,239,0.0,0.0,0,0.00,,---,0.00,VWS V14.01,2013-01-17 12:35:00,
2013-01-17 07:40:00,59.7,0.0,29.91,WSW,249,0.0,0.0,0,0.00,,---,0.00,VWS V14.01,2013-01-17 12:40:00,
2013-01-17 07:45:00,59.7,0.0,29.91,SSW,212,0.0,0.0,0,0.00,,---,0.00,VWS V14.01,2013-01-17 12:45:00,
2013-01-17 07:50:00,59.7,0.0,29.91,SSW,192,0.0,0.0,0,0.00,,---,0.00,VWS V14.01,2013-01-17 12:50:00,
2013-01-17 07:56:00,59.5,0.0,29.91,South,191,0.0,0.0,0,0.00,,---,0.00,VWS V14.01,2013-01-17 12:56:00,
2013-01-17 08:01:00,59.5,0.0,29.91,SSW,208,0.0,0.0,0,0.00,,---,0.00,VWS V14.01,2013-01-17 13:01:00,
2013-01-17 08:06:00,59.5,0.0,29.91,WSW,238,0.0,0.0,0,0.00,,---,0.00,VWS V14.01,2013-01-17 13:06:00,
2013-01-17 08:11:00,59.5,0.0,29.91,WSW,243,0.0,0.0,0,0.00,,---,0.00,VWS V14.01,2013-01-17 13:11:00,
2013-01-17 08:16:00,59.7,0.0,29.91,WSW,242,0.0,0.0,0,0.00,,---,0.00,VWS V14.01,2013-01-17 13:16:00,
2013-01-17 08:21:00,59.7,0.0,29.91,SW,225,0.0,2.2,0,0.00,,---,0.00,VWS V14.01,2013-01-17 13:21:00,
2013-01-17 08:26:00,59.9,0.0,29.91,West,280,0.0,0.0,0,0.00,,---,0.00,VWS V14.01,2013-01-17 13:26:00,
2013-01-17 08:31:00,59.9,0.0,29.91,WSW,238,0.0,2.7,0,0.00,,---,0.00,VWS V14.01,2013-01-17 13:31:00,
2013-01-17 08:36:00,60.1,0.0,29.91,WSW,242,0.0,2.7,0,0.00,,---,0.00,VWS V14.01,2013-01-17 13:36:00,
2013-01-17 08:41:00,60.4,0.0,29.91,SSW,200,4.7,4.7,0,0.00,,---,0.00,VWS V14.01,2013-01-17 13:41:00,
2013-01-17 08:45:00,60.4,0.0,29.91,WSW,243,0.0,0.0,0,0.00,,---,0.00,VWS V14.01,2013-01-17 13:45:00,
2013-01-17 08:50:00,60.4,0.0,29.91,SW,232,0.0,0.0,0,0.00,,---,0.00,VWS V14.01,2013-01-17 13:50:00,
2013-01-17 08:55:00,60.6,0.0,29.91,SSW,199,0.0,6.3,0,0.00,,---,0.00,VWS V14.01,2013-01-17 13:55:00,
2013-01-17 09:00:00,61.0,0.0,29.91,SSW,193,0.0,6.3,0,0.00,,---,0.00,VWS V14.01,2013-01-17 14:00:00,
2013-01-17 09:05:00,61.3,0.0,29.91,SSW,197,0.0,3.6,0,0.00,,---,0.00,VWS V14.01,2013-01-17 14:05:00,
2013-01-17 09:10:00,61.3,0.0,29.91,West,277,0.0,0.0,0,0.00,,---,0.00,VWS V14.01,2013-01-17 14:10:00,
2013-01-17 09:15:00,61.3,0.0,29.91,WSW,249,4.0,5.4,0,0.00,,---,0.00,VWS V14.01,2013-01-17 14:15:00,
2013-01-17 09:20:00,61.9,0.0,29.91,South,182,7.4,7.4,0,0.00,,---,0.00,VWS V14.01,2013-01-17 14:20:00,
2013-01-17 09:25:00,62.2,0.0,29.91,West,265,0.0,3.1,0,0.00,,---,0.00,VWS V14.01,2013-01-17 14:25:00,
2013-01-17 09:30:00,62.6,0.0,29.91,SW,234,11.4,11.4,0,0.00,,---,0.00,VWS V14.01,2013-01-17 14:30:00,
2013-01-17 09:35:00,63.0,0.0,29.91,West,259,0.0,2.7,0,0.00,,---,0.00,VWS V14.01,2013-01-17 14:35:00,
2013-01-17 09:40:00,63.3,0.0,29.91,SW,226,3.4,6.3,0,0.00,,---,0.00,VWS V14.01,2013-01-17 14:40:00,
2013-01-17 09:45:00,63.3,0.0,29.91,West,273,8.7,8.7,0,0.00,,---,0.00,VWS V14.01,2013-01-17 14:45:00,
2013-01-17 09:50:00,63.1,0.0,29.91,WSW,248,3.4,7.6,0,0.00,,---,0.00,VWS V14.01,2013-01-17 14:50:00,
2013-01-17 09:55:00,63.3,0.0,29.91,West,263,5.4,5.4,0,0.00,,---,0.00,VWS V14.01,2013-01-17 14:55:00,
2013-01-17 10:00:00,63.5,0.0,29.91,SSW,208,0.0,0.0,0,0.00,,---,0.00,VWS V14.01,2013-01-17 15:00:00,
2013-01-17 10:05:00,63.5,0.0,29.91,South,180,0.0,0.0,0,0.00,,---,0.00,VWS V14.01,2013-01-17 15:05:00,
2013-01-17 10:10:00,63.5,0.0,29.91,WSW,244,0.0,2.7,0,0.00,,---,0.00,VWS V14.01,2013-01-17 15:10:00,
2013-01-17 10:15:00,63.7,0.0,29.91,SW,225,0.0,0.0,0,0.00,,---,0.00,VWS V14.01,2013-01-17 15:15:00,
2013-01-17 10:20:00,64.0,0.0,29.91,WSW,251,4.7,4.7,0,0.00,,---,0.00,VWS V14.01,2013-01-17 15:20:00,
2013-01-17 10:25:00,64.8,0.0,29.91,WSW,253,0.0,0.0,0,0.00,,---,0.00,VWS V14.01,2013-01-17 15:25:00,
2013-01-17 10:30:00,66.0,0.0,29.91,West,260,0.0,0.0,0,0.00,,---,0.00,VWS V14.01,2013-01-17 15:30:00,
2013-01-17 10:35:00,66.2,0.0,29.91,SSW,200,0.0,0.0,0,0.00,,---,0.00,VWS V14.01,2013-01-17 15:35:00,
2013-01-17 10:40:00,66.7,0.0,29.91,SSW,197,0.0,0.0,0,0.00,,---,0.00,VWS V14.01,2013-01-17 15:40:00,
2013-01-17 10:45:00,66.7,0.0,29.91,South,186,0.0,0.0,0,0.00,,---,0.00,VWS V14.01,2013-01-17 15:45:00,
2013-01-17 10:50:00,66.6,0.0,29.88,SSW,196,0.0,0.0,0,0.00,,---,0.00,VWS V14.01,2013-01-17 15:50:00,
2013-01-17 10:55:00,66.6,0.0,29.88,SSW,196,0.0,0.0,0,0.00,,---,0.00,VWS V14.01,2013-01-17 15:55:00,
2013-01-17 11:00:00,66.6,0.0,29.88,SSW,197,0.0,0.0,0,0.00,,---,0.00,VWS V14.01,2013-01-17 16:00:00,
2013-01-17 11:05:00,67.1,0.0,29.88,South,190,0.0,0.0,0,0.00,,---,0.00,VWS V14.01,2013-01-17 16:05:00,
2013-01-17 11:10:00,66.9,0.0,29.88,SW,225,0.0,3.1,0,0.00,,---,0.00,VWS V14.01,2013-01-17 16:10:00,
2013-01-17 11:15:00,67.1,0.0,29.88,SSW,206,0.0,0.0,0,0.00,,---,0.00,VWS V14.01,2013-01-17 16:15:00,
2013-01-17 11:20:00,66.7,0.0,29.88,SSE,164,0.0,0.0,0,0.00,,---,0.00,VWS V14.01,2013-01-17 16:20:00,
2013-01-17 11:25:00,66.7,0.0,29.88,SSW,193,0.0,0.0,0,0.00,,---,0.00,VWS V14.01,2013-01-17 16:25:00,
2013-01-17 11:30:00,67.5,0.0,29.88,South,185,0.0,0.0,0,0.00,,---,0.00,VWS V14.01,2013-01-17 16:30:00,
2013-01-17 11:35:00,67.6,0.0,29.88,South,187,0.0,0.0,0,0.00,,---,0.00,VWS V14.01,2013-01-17 16:35:00,
2013-01-17 11:40:00,67.8,0.0,29.88,South,187,0.0,0.0,0,0.00,,---,0.00,VWS V14.01,2013-01-17 16:40:00,
2013-01-17 11:45:00,68.2,0.0,29.88,South,189,0.0,0.0,0,0.00,,---,0.00,VWS V14.01,2013-01-17 16:45:00,
2013-01-17 11:50:00,68.5,0.0,29.85,South,189,0.0,0.0,0,0.00,,---,0.00,VWS V14.01,2013-01-17 16:50:00,
2013-01-17 11:55:00,69.4,0.0,29.85,South,190,0.0,0.0,0,0.00,,---,0.00,VWS V14.01,2013-01-17 16:55:00,
2013-01-17 12:00:00,70.2,0.0,29.85,South,190,0.0,0.0,0,0.00,,---,0.00,VWS V14.01,2013-01-17 17:00:00,
2013-01-17 12:05:00,70.2,0.0,29.85,SSW,199,0.0,0.0,0,0.00,,---,0.00,VWS V14.01,2013-01-17 17:05:00,
2013-01-17 12:10:00,70.0,0.0,29.85,SSW,200,0.0,0.0,0,0.00,,---,0.00,VWS V14.01,2013-01-17 17:10:00,
2013-01-17 12:15:00,70.0,0.0,29.85,SSE,152,0.0,0.0,0,0.00,,---,0.00,VWS V14.01,2013-01-17 17:15:00,
2013-01-17 12:20:00,69.6,0.0,29.85,ESE,122,0.0,0.0,0,0.00,,---,0.00,VWS V14.01,2013-01-17 17:20:00,
2013-01-17 12:25:00,69.3,0.0,29.85,ESE,122,0.0,0.0,0,0.00,,---,0.00,VWS V14.01,2013-01-17 17:25:00,
2013-01-17 12:30:00,69.8,0.0,29.85,SE,129,0.0,0.0,0,0.00,,---,0.00,VWS V14.01,2013-01-17 17:30:00,
2013-01-17 12:35:00,70.0,0.0,29.85,SE,136,0.0,0.0,0,0.00,,---,0.00,VWS V14.01,2013-01-17 17:35:00,
2013-01-17 12:40:00,69.8,0.0,29.85,SE,126,0.0,0.0,0,0.00,,---,0.00,VWS V14.01,2013-01-17 17:40:00,
2013-01-17 12:45:00,70.2,0.0,29.85,East,100,0.0,0.0,0,0.00,,---,0.00,VWS V14.01,2013-01-17 17:45:00,
2013-01-17 12:50:00,70.5,0.0,29.83,SE,126,0.0,0.0,0,0.00,,---,0.00,VWS V14.01,2013-01-17 17:50:00,
2013-01-17 12:55:00,71.1,0.0,29.83,SE,126,0.0,0.0,0,0.00,,---,0.00,VWS V14.01,2013-01-17 17:55:00,
2013-01-17 13:00:00,72.1,0.0,29.83,SE,139,0.0,0.0,0,0.00,,---,0.00,VWS V14.01,2013-01-17 18:00:00,
2013-01-17 13:05:00,72.5,0.0,29.83,SSE,155,0.0,0.0,0,0.00,,---,0.00,VWS V14.01,2013-01-17 18:05:00,
2013-01-17 13:10:00,72.3,0.0,29.83,ESE,102,0.0,0.0,0,0.00,,---,0.00,VWS V14.01,2013-01-17 18:10:00,
2013-01-17 13:15:00,72.0,0.0,29.83,SE,133,0.0,0.0,0,0.00,,---,0.00,VWS V14.01,2013-01-17 18:15:00,
2013-01-17 13:20:00,72.3,0.0,29.83,ENE,77,0.0,0.0,0,0.00,,---,0.00,VWS V14.01,2013-01-17 18:20:00,
2013-01-17 13:25:00,72.7,0.0,29.83,East,99,4.0,4.0,0,0.00,,---,0.00,VWS V14.01,2013-01-17 18:25:00,
2013-01-17 13:30:00,72.5,0.0,29.83,East,94,8.7,8.7,0,0.00,,---,0.00,VWS V14.01,2013-01-17 18:30:00,
2013-01-17 13:35:00,70.0,0.0,29.83,ESE,117,0.0,3.6,0,0.00,,---,0.00,VWS V14.01,2013-01-17 18:35:00,
2013-01-17 13:40:00,70.0,0.0,29.83,SE,146,0.0,0.0,0,0.00,,---,0.00,VWS V14.01,2013-01-17 18:40:00,
2013-01-17 13:45:00,70.0,0.0,29.83,ESE,107,0.0,0.0,0,0.00,,---,0.00,VWS V14.01,2013-01-17 18:45:00,
2013-01-17 13:50:00,70.0,0.0,29.83,ENE,66,0.0,4.5,0,0.00,,---,0.00,VWS V14.01,2013-01-17 18:50:00,
2013-01-17 13:55:00,70.0,0.0,29.83,East,87,0.0,0.0,0,0.00,,---,0.00,VWS V14.01,2013-01-17 18:55:00,
2013-01-17 14:00:00,70.0,0.0,29.83,East,84,0.0,3.6,0,0.00,,---,0.00,VWS V14.01,2013-01-17 19:00:00,
2013-01-17 14:05:00,70.0,0.0,29.83,ENE,65,0.0,0.0,0,0.00,,---,0.00,VWS V14.01,2013-01-17 19:05:00,
2013-01-17 14:10:00,70.0,0.0,29.83,ESE,105,0.0,0.0,0,0.00,,---,0.00,VWS V14.01,2013-01-17 19:10:00,
2013-01-17 14:15:00,70.0,0.0,29.83,ESE,108,5.4,5.4,0,0.00,,---,0.00,VWS V14.01,2013-01-17 19:15:00,
2013-01-17 14:20:00,70.0,0.0,29.83,East,82,6.7,6.7,0,0.00,,---,0.00,VWS V14.01,2013-01-17 19:20:00,
2013-01-17 14:25:00,70.0,0.0,29.83,ENE,73,0.0,0.0,0,0.00,,---,0.00,VWS V14.01,2013-01-17 19:25:00,
2013-01-17 14:30:00,70.0,0.0,29.83,ENE,78,4.0,4.9,0,0.00,,---,0.00,VWS V14.01,2013-01-17 19:30:00,
2013-01-17 14:35:00,70.0,0.0,29.83,NE,56,12.1,12.1,0,0.00,,---,0.00,VWS V14.01,2013-01-17 19:35:00,
2013-01-17 14:40:00,70.0,0.0,29.83,NNE,31,8.1,8.1,0,0.00,,---,0.00,VWS V14.01,2013-01-17 19:40:00,
2013-01-17 14:45:00,70.0,0.0,29.83,East,92,5.4,5.4,0,0.00,,---,0.00,VWS V14.01,2013-01-17 19:45:00,
2013-01-17 14:50:00,70.0,0.0,29.83,East,89,5.4,7.2,0,0.00,,---,0.00,VWS V14.01,2013-01-17 19:50:00,
2013-01-17 14:55:00,70.0,0.0,29.83,ESE,103,4.0,9.6,0,0.00,,---,0.00,VWS V14.01,2013-01-17 19:55:00,
2013-01-17 15:00:00,70.0,0.0,29.83,ENE,57,15.8,15.8,0,0.00,,---,0.00,VWS V14.01,2013-01-17 20:00:00,
2013-01-17 15:05:00,70.0,0.0,29.83,East,82,5.4,5.4,0,0.00,,---,0.00,VWS V14.01,2013-01-17 20:05:00,
2013-01-17 15:10:00,70.0,0.0,29.83,ENE,75,15.8,15.8,0,0.00,,---,0.00,VWS V14.01,2013-01-17 20:10:00,
2013-01-17 15:15:00,70.0,0.0,29.83,NNE,20,6.0,7.6,0,0.00,,---,0.00,VWS V14.01,2013-01-17 20:15:00,
2013-01-17 15:20:00,70.0,0.0,29.83,ESE,121,0.0,0.0,0,0.00,,---,0.00,VWS V14.01,2013-01-17 20:20:00,
2013-01-17 15:25:00,70.0,0.0,29.83,ENE,63,6.0,7.2,0,0.00,,---,0.00,VWS V14.01,2013-01-17 20:25:00,
2013-01-17 15:30:00,70.0,0.0,29.83,ENE,61,8.7,8.7,0,0.00,,---,0.00,VWS V14.01,2013-01-17 20:30:00,
2013-01-17 15:35:00,70.0,0.0,29.80,NE,36,13.1,13.1,0,0.00,,---,0.00,VWS V14.01,2013-01-17 20:35:00,
2013-01-17 15:40:00,70.0,0.0,29.80,East,79,7.4,7.4,0,0.00,,---,0.00,VWS V14.01,2013-01-17 20:40:00,
2013-01-17 15:45:00,70.0,0.0,29.80,East,81,4.0,7.6,0,0.00,,---,0.00,VWS V14.01,2013-01-17 20:45:00,
2013-01-17 15:50:00,70.0,0.0,29.83,NE,37,14.4,14.4,0,0.00,,---,0.00,VWS V14.01,2013-01-17 20:50:00,
2013-01-17 15:55:00,70.0,0.0,29.83,ENE,58,0.0,4.0,0,0.00,,---,0.00,VWS V14.01,2013-01-17 20:55:00,
2013-01-17 16:00:00,70.0,0.0,29.83,ENE,62,11.4,11.4,0,0.00,,---,0.00,VWS V14.01,2013-01-17 21:00:00,
2013-01-17 16:05:00,70.0,0.0,29.83,ENE,69,4.7,6.3,0,0.00,,---,0.00,VWS V14.01,2013-01-17 21:05:00,
2013-01-17 16:10:00,70.0,0.0,29.83,East,79,0.0,6.3,0,0.00,,---,0.00,VWS V14.01,2013-01-17 21:10:00,
2013-01-17 16:15:00,70.0,0.0,29.83,East,93,8.7,8.7,0,0.00,,---,0.00,VWS V14.01,2013-01-17 21:15:00,
2013-01-17 16:20:00,70.0,0.0,29.83,ENE,61,8.1,8.1,0,0.00,,---,0.00,VWS V14.01,2013-01-17 21:20:00,
2013-01-17 16:25:00,70.0,0.0,29.83,ENE,63,10.7,10.7,0,0.00,,---,0.00,VWS V14.01,2013-01-17 21:25:00,
2013-01-17 16:30:00,56.5,0.0,29.83,North,357,4.7,5.8,0,0.00,,---,0.00,VWS V14.01,2013-01-17 21:30:00,
2013-01-17 16:35:00,56.5,0.0,29.80,East,79,0.0,4.0,0,0.00,,---,0.00,VWS V14.01,2013-01-17 21:35:00,
2013-01-17 16:40:00,56.5,0.0,29.80,NNE,19,0.0,0.0,0,0.00,,---,0.00,VWS V14.01,2013-01-17 21:40:00,
2013-01-17 16:45:00,56.5,0.0,29.80,North,4,9.4,9.4,0,0.00,,---,0.00,VWS V14.01,2013-01-17 21:45:00,
2013-01-17 16:50:00,56.5,0.0,29.80,East,84,0.0,0.0,0,0.00,,---,0.00,VWS V14.01,2013-01-17 21:50:00,
2013-01-17 16:55:00,56.5,0.0,29.80,ENE,75,5.4,5.4,0,0.00,,---,0.00,VWS V14.01,2013-01-17 21:55:00,
2013-01-17 17:00:00,55.4,0.0,29.80,NNE,17,5.4,5.4,0,0.00,,---,0.00,VWS V14.01,2013-01-17 22:00:00,
2013-01-17 17:05:00,55.4,0.0,29.80,ENE,73,6.0,6.0,0,0.00,,---,0.00,VWS V14.01,2013-01-17 22:05:00,
2013-01-17 17:10:00,54.9,0.0,29.80,North,9,4.7,4.7,0,0.00,,---,0.00,VWS V14.01,2013-01-17 22:10:00,
2013-01-17 17:15:00,54.7,0.0,29.80,East,86,4.7,4.7,0,0.00,,---,0.00,VWS V14.01,2013-01-17 22:15:00,
2013-01-17 17:20:00,54.1,0.0,29.80,NNE,19,11.4,11.4,0,0.00,,---,0.00,VWS V14.01,2013-01-17 22:20:00,
2013-01-17 17:25:00,54.1,0.0,29.80,East,81,11.4,11.4,0,0.00,,---,0.00,VWS V14.01,2013-01-17 22:25:00,
2013-01-17 17:30:00,54.1,0.0,29.80,North,1,6.0,8.7,0,0.00,,---,0.00,VWS V14.01,2013-01-17 22:30:00,
2013-01-17 17:35:00,53.6,0.0,29.80,NE,50,9.4,9.4,0,0.00,,---,0.00,VWS V14.01,2013-01-17 22:35:00,
2013-01-17 17:40:00,53.2,0.0,29.80,ENE,72,7.4,7.4,0,0.00,,---,0.00,VWS V14.01,2013-01-17 22:40:00,
2013-01-17 17:45:00,53.1,0.0,29.80,NE,40,6.0,6.0,0,0.00,,---,0.00,VWS V14.01,2013-01-17 22:45:00,
2013-01-17 17:50:00,53.1,0.0,29.80,ENE,58,3.4,11.0,0,0.00,,---,0.00,VWS V14.01,2013-01-17 22:50:00,
2013-01-17 17:55:00,53.1,0.0,29.80,NE,48,8.7,8.7,0,0.00,,---,0.00,VWS V14.01,2013-01-17 22:55:00,
2013-01-17 18:00:00,53.1,0.0,29.80,ESE,112,4.7,5.4,0,0.00,,---,0.00,VWS V14.01,2013-01-17 23:00:00,
2013-01-17 18:05:00,53.1,0.0,29.77,NE,42,0.0,0.0,0,0.00,,---,0.00,VWS V14.01,2013-01-17 23:05:00,
2013-01-17 18:10:00,52.3,0.0,29.77,ENE,70,6.0,6.0,0,0.00,,---,0.00,VWS V14.01,2013-01-17 23:10:00,
2013-01-17 18:15:00,52.3,0.0,29.77,NE,46,5.4,7.2,0,0.00,,---,0.00,VWS V14.01,2013-01-17 23:15:00,
2013-01-17 18:20:00,52.3,0.0,29.77,NNW,338,14.4,14.4,0,0.00,,---,0.00,VWS V14.01,2013-01-17 23:20:00,
2013-01-17 18:25:00,52.0,0.0,29.77,North,7,11.4,11.4,0,0.00,,---,0.00,VWS V14.01,2013-01-17 23:25:00,
2013-01-17 18:30:00,52.0,0.0,29.77,NE,52,0.0,3.1,0,0.00,,---,0.00,VWS V14.01,2013-01-17 23:30:00,
2013-01-17 18:35:00,51.8,0.0,29.77,ENE,65,6.0,6.0,0,0.00,,---,0.00,VWS V14.01,2013-01-17 23:35:00,
2013-01-17 18:40:00,51.8,0.0,29.77,East,87,3.4,4.0,0,0.00,,---,0.00,VWS V14.01,2013-01-17 23:40:00,
2013-01-17 18:45:00,51.8,0.0,29.77,ENE,66,10.7,10.7,0,0.00,,---,0.00,VWS V14.01,2013-01-17 23:45:00,
2013-01-17 18:50:00,51.4,0.0,29.77,NE,35,12.1,12.1,0,0.00,,---,0.00,VWS V14.01,2013-01-17 23:50:00,
2013-01-17 18:55:00,51.4,0.0,29.77,North,353,11.4,11.4,0,0.00,,---,0.00,VWS V14.01,2013-01-17 23:55:00,
2013-01-17 19:00:00,51.1,0.0,29.77,NNW,338,0.0,7.6,0,0.00,,---,0.00,VWS V14.01,2013-01-18 00:00:00,
2013-01-17 19:05:00,51.1,0.0,29.77,NW,318,8.1,8.1,0,0.00,,---,0.00,VWS V14.01,2013-01-18 00:05:00,
2013-01-17 19:10:00,50.7,0.0,29.77,NNW,342,0.0,4.0,0,0.00,,---,0.00,VWS V14.01,2013-01-18 00:10:00,
2013-01-17 19:15:00,50.4,0.0,29.77,NE,42,5.4,5.4,0,0.00,,---,0.00,VWS V14.01,2013-01-18 00:15:00,
2013-01-17 19:20:00,50.2,0.0,29.77,NNW,341,0.0,3.1,0,0.00,,---,0.00,VWS V14.01,2013-01-18 00:20:00,
2013-01-17 19:25:00,50.2,0.0,29.77,North,3,0.0,0.0,0,0.00,,---,0.00,VWS V14.01,2013-01-18 00:25:00,
2013-01-17 19:30:00,50.2,0.0,29.77,ENE,72,4.0,12.3,0,0.00,,---,0.00,VWS V14.01,2013-01-18 00:30:00,
2013-01-17 19:35:00,50.2,0.0,29.77,North,353,4.0,4.0,0,0.00,,---,0.00,VWS V14.01,2013-01-18 00:35:00,
2013-01-17 19:40:00,49.6,0.0,29.77,NW,312,0.0,4.9,0,0.00,,---,0.00,VWS V14.01,2013-01-18 00:40:00,
2013-01-17 19:45:00,49.6,0.0,29.77,North,353,8.7,9.6,0,0.00,,---,0.00,VWS V14.01,2013-01-18 00:45:00,
2013-01-17 19:50:00,49.5,0.0,29.77,North,353,4.0,4.0,0,0.00,,---,0.00,VWS V14.01,2013-01-18 00:50:00,
2013-01-17 19:55:00,49.5,0.0,29.77,East,81,0.0,2.7,0,0.00,,---,0.00,VWS V14.01,2013-01-18 00:55:00,
2013-01-17 20:00:00,49.5,0.0,29.77,NNW,344,0.0,3.1,0,0.00,,---,0.00,VWS V14.01,2013-01-18 01:00:00,
2013-01-17 20:05:00,49.3,0.0,29.77,East,88,9.4,9.4,0,0.00,,---,0.00,VWS V14.01,2013-01-18 01:05:00,
2013-01-17 20:10:00,49.1,0.0,29.77,North,349,0.0,2.2,0,0.00,,---,0.00,VWS V14.01,2013-01-18 01:10:00,
2013-01-17 20:15:00,49.1,0.0,29.77,East,82,6.7,6.7,0,0.00,,---,0.00,VWS V14.01,2013-01-18 01:15:00,
2013-01-17 20:20:00,49.1,0.0,29.74,NE,52,0.0,4.9,0,0.00,,---,0.00,VWS V14.01,2013-01-18 01:20:00,
2013-01-17 20:25:00,49.1,0.0,29.74,NNW,333,6.0,6.0,0,0.00,,---,0.00,VWS V14.01,2013-01-18 01:25:00,
2013-01-17 20:30:00,49.1,0.0,29.74,NNE,31,7.4,7.4,0,0.00,,---,0.00,VWS V14.01,2013-01-18 01:30:00,
2013-01-17 20:35:00,49.1,0.0,29.74,ENE,73,0.0,2.7,0,0.00,,---,0.00,VWS V14.01,2013-01-18 01:35:00,
2013-01-17 20:40:00,49.1,0.0,29.74,East,79,4.7,4.9,0,0.00,,---,0.00,VWS V14.01,2013-01-18 01:40:00,
2013-01-17 20:45:00,48.9,0.0,29.74,East,88,4.7,4.7,0,0.00,,---,0.00,VWS V14.01,2013-01-18 01:45:00,
2013-01-17 20:50:00,48.9,0.0,29.74,NNE,27,0.0,4.9,0,0.00,,---,0.00,VWS V14.01,2013-01-18 01:50:00,
2013-01-17 20:55:00,48.7,0.0,29.74,ENE,57,3.4,3.4,0,0.00,,---,0.00,VWS V14.01,2013-01-18 01:55:00,
2013-01-17 21:00:00,48.7,0.0,29.74,NE,46,7.4,7.4,0,0.00,,---,0.00,VWS V14.01,2013-01-18 02:00:00,
2013-01-17 21:05:00,48.7,0.0,29.74,NNE,28,4.7,4.7,0,0.00,,---,0.00,VWS V14.01,2013-01-18 02:05:00,
2013-01-17 21:10:00,48.7,0.0,29.74,ENE,58,0.0,3.6,0,0.00,,---,0.00,VWS V14.01,2013-01-18 02:10:00,
2013-01-17 21:15:00,48.7,0.0,29.74,NW,314,11.4,11.4,0,0.00,,---,0.00,VWS V14.01,2013-01-18 02:15:00,
2013-01-17 21:20:00,48.7,0.0,29.77,NW,323,0.0,2.2,0,0.00,,---,0.00,VWS V14.01,2013-01-18 02:20:00,
2013-01-17 21:25:00,48.7,0.0,29.77,WNW,295,0.0,0.0,0,0.00,,---,0.00,VWS V14.01,2013-01-18 02:25:00,
2013-01-17 21:30:00,48.7,0.0,29.77,WNW,287,0.0,2.7,0,0.00,,---,0.00,VWS V14.01,2013-01-18 02:30:00,
2013-01-17 21:35:00,47.8,0.0,29.83,NW,323,0.0,0.0,0,0.00,,---,0.00,VWS V14.01,2013-01-18 02:35:00,
2013-01-17 21:40:00,47.7,0.0,29.83,NNW,329,0.0,2.7,0,0.00,,---,0.00,VWS V14.01,2013-01-18 02:40:00,
2013-01-17 21:45:00,47.5,0.0,29.83,North,11,0.0,0.0,0,0.00,,---,0.00,VWS V14.01,2013-01-18 02:45:00,
2013-01-17 21:50:00,47.3,0.0,29.80,NW,314,4.0,4.0,0,0.00,,---,0.00,VWS V14.01,2013-01-18 02:50:00,
2013-01-17 21:55:00,47.3,0.0,29.80,North,6,0.0,0.0,0,0.00,,---,0.00,VWS V14.01,2013-01-18 02:55:00,
2013-01-17 22:00:00,47.3,0.0,29.80,North,11,4.0,4.0,0,0.00,,---,0.00,VWS V14.01,2013-01-18 03:00:00,
2013-01-17 22:05:00,47.3,0.0,29.80,NW,326,0.0,3.6,0,0.00,,---,0.00,VWS V14.01,2013-01-18 03:05:00,
2013-01-17 22:10:00,46.9,0.0,29.80,NNW,346,0.0,2.7,0,0.00,,---,0.00,VWS V14.01,2013-01-18 03:10:00,
2013-01-17 22:15:00,46.8,0.0,29.80,NNE,19,0.0,0.0,0,0.00,,---,0.00,VWS V14.01,2013-01-18 03:15:00,
2013-01-17 22:20:00,46.8,0.0,29.80,NNE,24,0.0,2.2,0,0.00,,---,0.00,VWS V14.01,2013-01-18 03:20:00,
2013-01-17 22:25:00,46.8,0.0,29.80,NW,313,4.7,4.7,0,0.00,,---,0.00,VWS V14.01,2013-01-18 03:25:00,
2013-01-17 22:30:00,46.8,0.0,29.80,NNW,330,0.0,0.0,0,0.00,,---,0.00,VWS V14.01,2013-01-18 03:30:00,
2013-01-17 22:35:00,46.8,0.0,29.83,NW,322,0.0,0.0,0,0.00,,---,0.00,VWS V14.01,2013-01-18 03:35:00,
2013-01-17 22:40:00,46.8,0.0,29.83,NW,318,4.0,4.0,0,0.00,,---,0.00,VWS V14.01,2013-01-18 03:40:00,
2013-01-17 22:45:00,46.8,0.0,29.83,North,0,7.4,7.4,0,0.00,,---,0.00,VWS V14.01,2013-01-18 03:45:00,
2013-01-17 22:50:00,46.8,0.0,29.83,NNE,14,0.0,0.0,0,0.00,,---,0.00,VWS V14.01,2013-01-18 03:50:00,
2013-01-17 22:55:00,46.8,0.0,29.83,North,3,4.0,4.0,0,0.00,,---,0.00,VWS V14.01,2013-01-18 03:55:00,
2013-01-17 23:00:00,46.8,0.0,29.83,NW,325,0.0,5.4,0,0.00,,---,0.00,VWS V14.01,2013-01-18 04:00:00,
2013-01-17 23:05:00,46.8,0.0,29.83,NNE,28,5.4,5.4,0,0.00,,---,0.00,VWS V14.01,2013-01-18 04:05:00,
2013-01-17 23:10:00,46.8,0.0,29.83,NW,319,0.0,0.0,0,0.00,,---,0.00,VWS V14.01,2013-01-18 04:10:00,
2013-01-17 23:15:00,46.8,0.0,29.83,ENE,74,4.7,4.7,0,0.00,,---,0.00,VWS V14.01,2013-01-18 04:15:00,
2013-01-17 23:20:00,46.8,0.0,29.85,NNW,328,4.0,4.9,0,0.00,,---,0.00,VWS V14.01,2013-01-18 04:20:00,
2013-01-17 23:25:00,46.8,0.0,29.85,NNW,348,0.0,0.0,0,0.00,,---,0.00,VWS V14.01,2013-01-18 04:25:00,
2013-01-17 23:30:00,46.8,0.0,29.85,NNW,329,0.0,0.0,0,0.00,,---,0.00,VWS V14.01,2013-01-18 04:30:00,
2013-01-17 23:35:00,46.8,0.0,29.85,NNW,339,4.0,4.0,0,0.00,,---,0.00,VWS V14.01,2013-01-18 04:35:00,
2013-01-17 23:40:00,46.8,0.0,29.85,WNW,282,0.0,0.0,0,0.00,,---,0.00,VWS V14.01,2013-01-18 04:40:00,
2013-01-17 23:45:00,46.8,0.0,29.85,NNE,22,0.0,0.0,0,0.00,,---,0.00,VWS V14.01,2013-01-18 04:45:00,
2013-01-17 23:50:00,46.8,0.0,29.85,NW,317,0.0,0.0,0,0.00,,---,0.00,VWS V14.01,2013-01-18 04:50:00,
2013-01-17 23:55:00,46.8,0.0,29.85,NNW,340,0.0,0.0,0,0.00,,---,0.00,VWS V14.01,2013-01-18 04:55:00,